Regional Weather Roundup
Issued by NWS

Home | Current Version | Previous Version | Graphics & Text | Print | Product List | Glossary On
Versions: 1 2 3 4 5 6 7 8 9 10 11 12 13 14 15 16 17 18 19 20 21 22 23 24 25 26
000
ASUS45 KSLC 220710
RWRUT

UTAH REGIONAL WEATHER ROUNDUP
NATIONAL WEATHER SERVICE SALT LAKE CITY UT
100 AM MDT THU JUN 22 2017

UTZ001>011-023>025-220800-

NORTHERN UTAH

CITY           SKY/WX    TMP DP  RH WIND       PRES   REMARKS
BRIGHAM CITY   CLEAR     75  31  19 N7        29.93F
HILL AFB       PTCLDY    77  35  21 NE5       29.96S
LOGAN          PTCLDY    63  48  58 CALM      29.97S
OGDEN          CLEAR     77  36  22 N13       29.92F
SALT LAKE CITY PTCLDY    78  51  38 N6        29.91R
TOOELE VALLEY  PTCLDY    73  57  56 N10       29.95R
WENDOVER         N/A     78  39  24 NW28G35   29.94
HEBER CITY     PTCLDY    61  48  63 CALM      30.02R
WEST JORDAN    PTCLDY    78  53  42 NW13      29.96R

$$

UTZ011>015-024>027-220800-

CENTRAL/NORTHEAST UTAH

CITY           SKY/WX    TMP DP  RH WIND       PRES   REMARKS
PROVO AIRPORT  PTCLDY    77  50  38 NE10      29.92R
MOAB/CANYONLAN PTCLDY    79  29  16 W6        29.84F
DELTA          CLEAR     79  36  21 N13       29.93R
PRICE          PTCLDY    72  32  23 NE8       29.99F
RICHFIELD      CLEAR     77  25  14 SW10      29.98R
ROOSEVELT      CLEAR     66  43  42 SW6       29.97S
VERNAL         CLOUDY    76  38  25 E7        29.95F

$$

UTZ013>016-019>022-027-220800-

SOUTHERN UTAH

CITY           SKY/WX    TMP DP  RH WIND       PRES   REMARKS
BRYCE CANYON   PTCLDY    46  31  55 CALM      30.20F
CEDAR CITY     CLEAR     73  26  17 SE5       30.00F
MILFORD        CLEAR     75  22  13 N3        29.96R
ST GEORGE      MOSUNNY   88  27  11 SE3       29.77R
HANKSVILLE     PTCLDY    72  27  18 CALM      29.88S
KANAB          CLEAR     66  34  30 NE5       30.00S
BLANDING       CLEAR     68  37  31 N7        30.07S

$$

REGIONAL REPORTS     COLORADO/ARIZONA

CITY           SKY/WX    TMP DP  RH WIND       PRES   REMARKS
CRAIG, CO      CLEAR     53  44  71 CALM      30.07S
GRAND JUNCTION CLOUDY    76  36  23 E10       29.91F
RIFLE, CO      CLEAR     69  38  32 S7        30.02S
MONTROSE, CO   CLOUDY    72  37  28 SE8       30.02F
CORTEZ, CO     CLEAR     56  43  61 S3        30.02S
COLORADO CITY    N/A     64  30  27 SE3       29.99S
PAGE, AZ       CLEAR     91  27  10 VRB3      29.87S
GRAND CANYON   CLEAR     57  29  34 CALM      30.15S
KINGMAN, AZ    CLEAR     87  29  12 S12       29.84S
FLAGSTAFF, AZ  CLEAR     72  26  18 VRB3      30.18S

$$

REGIONAL REPORTS    NEVADA/IDAHO/WYOMING

CITY           SKY/WX    TMP DP  RH WIND       PRES   REMARKS
LAS VEGAS, NV  CLEAR     96  23   7 S7        29.68F HX  90
ELY, NY        CLEAR     70  42  36 N12       30.09F
ELKO, NV       CLEAR     68  39  34 E6        30.09R
POCATELLO, ID  CLEAR     67  32  27 SW22      30.01R
BURLEY, ID     PTCLDY    65  34  31 SW17      29.99R
FORT BRIDGER,    N/A     63  45  51 W8        30.16S
EVANSTON, WY   CLOUDY    66  44  45 CALM      30.15R
ROCK SPRINGS,  CLEAR     63  42  46 NW6       30.08S
KEMMERER, WY     N/A     59  39  47 W9        30.13F

$$




USA.gov is the U.S. government's official web portal to all federal, state and local government web resources and services.